AZU2895 SBSP-SBCF

Flight info

Callsign AZU2895
Flight time 0h 50m
Altitude 31000
Route NUXEL UZ23 KIBAP
Aircraft E195/M-SDE3GILORVW/S

Departure

Time 2026-05-05 23:47
Airport Congonhas–Deputado Freitas Nobre Airport (SBSP)

Arrival

Time 2026-05-06 00:37
Airport Tancredo Neves International Airport (SBCF)
Time Latitude Longitude Altitude Speed Heading
2026-05-05 23:36 -23.62543 -46.65945 2642 ft 0 kts 236°
2026-05-05 23:40 -23.62539 -46.65938 2642 ft 2 kts 236°
2026-05-05 23:40 -23.62529 -46.65922 2642 ft 3 kts 236°
2026-05-05 23:41 -23.62518 -46.65904 2642 ft 3 kts 236°
2026-05-05 23:41 -23.62512 -46.65895 2642 ft 0 kts 236°
2026-05-05 23:42 -23.62514 -46.65898 2642 ft 1 kts 236°
2026-05-05 23:43 -23.62515 -46.65908 2642 ft 3 kts 290°
2026-05-05 23:43 -23.62466 -46.65915 2642 ft 8 kts 359°
2026-05-05 23:43 -23.62406 -46.65935 2642 ft 9 kts 326°
2026-05-05 23:43 -23.62355 -46.65971 2642 ft 9 kts 327°
2026-05-05 23:44 -23.62292 -46.66015 2642 ft 12 kts 328°
2026-05-05 23:44 -23.62224 -46.66054 2642 ft 10 kts 333°
2026-05-05 23:44 -23.62179 -46.66083 2642 ft 6 kts 327°
2026-05-05 23:44 -23.62135 -46.66114 2642 ft 8 kts 327°
2026-05-05 23:45 -23.62088 -46.66137 2642 ft 8 kts 349°
2026-05-05 23:45 -23.62035 -46.66130 2642 ft 8 kts 34°
2026-05-05 23:45 -23.62025 -46.66093 2642 ft 5 kts 133°
2026-05-05 23:45 -23.62033 -46.66086 2642 ft 0 kts 147°
2026-05-05 23:46 -23.62073 -46.66058 2642 ft 34 kts 147°
2026-05-05 23:46 -23.62515 -46.65751 2642 ft 113 kts 147°
2026-05-05 23:46 -23.63332 -46.65187 2876 ft 153 kts 147°
2026-05-05 23:47 -23.64236 -46.64552 3638 ft 157 kts 145°
2026-05-05 23:47 -23.64948 -46.63630 4346 ft 162 kts 121°
2026-05-05 23:47 -23.65466 -46.62543 5043 ft 165 kts 117°
2026-05-05 23:47 -23.66060 -46.61401 5494 ft 186 kts 119°
2026-05-05 23:48 -23.66489 -46.60511 5671 ft 208 kts 116°
2026-05-05 23:48 -23.67233 -46.59045 6168 ft 239 kts 120°
2026-05-05 23:48 -23.68143 -46.57368 6671 ft 270 kts 120°
2026-05-05 23:48 -23.69112 -46.55597 7818 ft 274 kts 121°
2026-05-05 23:49 -23.70079 -46.53784 9031 ft 276 kts 119°
2026-05-05 23:49 -23.70972 -46.51934 10132 ft 280 kts 117°
2026-05-05 23:49 -23.71820 -46.49974 11113 ft 291 kts 112°
2026-05-05 23:49 -23.72225 -46.47677 11389 ft 325 kts 87°
2026-05-05 23:50 -23.71755 -46.45233 12187 ft 338 kts 75°
2026-05-05 23:50 -23.71213 -46.42700 13032 ft 350 kts 78°
2026-05-05 23:50 -23.70743 -46.40053 14079 ft 354 kts 81°
2026-05-05 23:50 -23.70351 -46.37382 15166 ft 357 kts 82°
2026-05-05 23:51 -23.69988 -46.34699 16122 ft 363 kts 82°
2026-05-05 23:51 -23.69617 -46.31945 16794 ft 376 kts 82°
2026-05-05 23:51 -23.69215 -46.29053 17417 ft 390 kts 82°
2026-05-05 23:51 -23.68795 -46.26115 18121 ft 400 kts 82°
2026-05-05 23:52 -23.68355 -46.23062 18956 ft 406 kts 82°
2026-05-05 23:52 -23.67919 -46.20038 19815 ft 409 kts 82°
2026-05-05 23:52 -23.67471 -46.16924 20666 ft 413 kts 82°
2026-05-05 23:52 -23.66944 -46.13853 21441 ft 418 kts 76°
2026-05-05 23:53 -23.65662 -46.10960 22151 ft 425 kts 54°
2026-05-05 23:53 -23.63543 -46.08724 22812 ft 430 kts 34°
2026-05-05 23:53 -23.60894 -46.07203 23459 ft 435 kts 23°
2026-05-05 23:53 -23.58080 -46.05922 24096 ft 440 kts 21°
2026-05-05 23:54 -23.55209 -46.04687 24703 ft 445 kts 20°
2026-05-05 23:54 -23.52329 -46.03425 25283 ft 450 kts 21°
2026-05-05 23:54 -23.49445 -46.02114 25845 ft 455 kts 22°
2026-05-05 23:54 -23.46508 -46.00724 26389 ft 459 kts 22°
2026-05-05 23:55 -23.43593 -45.99327 26901 ft 463 kts 21°
2026-05-05 23:55 -23.40467 -45.98420 27393 ft 463 kts
2026-05-05 23:55 -23.37256 -45.98359 27889 ft 464 kts 357°
2026-05-05 23:55 -23.34009 -45.98401 28362 ft 467 kts 356°
2026-05-05 23:56 -23.30784 -45.98469 28788 ft 470 kts 356°
2026-05-05 23:56 -23.27496 -45.98515 29181 ft 474 kts 357°
2026-05-05 23:56 -23.24157 -45.98536 29545 ft 478 kts 357°
2026-05-05 23:56 -23.20823 -45.98528 29889 ft 481 kts 358°
2026-05-05 23:57 -23.17451 -45.98495 30220 ft 484 kts 358°
2026-05-05 23:57 -23.14102 -45.98442 30539 ft 487 kts 358°
2026-05-05 23:57 -23.10682 -45.98372 30870 ft 490 kts 358°
2026-05-05 23:57 -23.07262 -45.98289 31139 ft 491 kts 358°
2026-05-05 23:58 -23.03872 -45.98197 31248 ft 489 kts 359°
2026-05-05 23:58 -23.00488 -45.98081 31285 ft 486 kts
2026-05-05 23:58 -22.97156 -45.97478 31282 ft 489 kts 16°
2026-05-05 23:58 -22.94116 -45.95803 31291 ft 490 kts 32°
2026-05-05 23:59 -22.89087 -45.90844 31287 ft 490 kts 55°
2026-05-05 23:59 -22.85386 -45.84633 31284 ft 490 kts 58°
2026-05-06 00:00 -22.81467 -45.78623 31271 ft 491 kts 51°
2026-05-06 00:00 -22.76710 -45.73319 31269 ft 490 kts 41°
2026-05-06 00:01 -22.71362 -45.68716 31271 ft 490 kts 35°
2026-05-06 00:01 -22.65714 -45.64611 31270 ft 490 kts 31°
2026-05-06 00:02 -22.59886 -45.60785 31271 ft 490 kts 29°
2026-05-06 00:02 -22.53960 -45.57115 31269 ft 489 kts 28°
2026-05-06 00:03 -22.48016 -45.53550 31269 ft 489 kts 27°
2026-05-06 00:03 -22.42005 -45.50008 31269 ft 489 kts 27°
2026-05-06 00:04 -22.36034 -45.46523 31264 ft 489 kts 27°
2026-05-06 00:04 -22.30034 -45.43042 31264 ft 489 kts 27°
2026-05-06 00:05 -22.21042 -45.37846 31265 ft 489 kts 27°
2026-05-06 00:06 -22.15014 -45.34371 31267 ft 489 kts 27°
2026-05-06 00:06 -22.09004 -45.30912 31268 ft 489 kts 27°
2026-05-06 00:07 -22.02989 -45.27454 31270 ft 489 kts 27°
2026-05-06 00:07 -21.96984 -45.24005 31272 ft 489 kts 27°
2026-05-06 00:08 -21.90961 -45.20551 31275 ft 489 kts 27°
2026-05-06 00:08 -21.84972 -45.17118 31273 ft 489 kts 27°
2026-05-06 00:09 -21.78955 -45.13673 31275 ft 489 kts 27°
2026-05-06 00:09 -21.72935 -45.10230 31278 ft 490 kts 27°
2026-05-06 00:10 -21.66937 -45.06803 31282 ft 490 kts 27°
2026-05-06 00:10 -21.60901 -45.03358 31286 ft 489 kts 27°
2026-05-06 00:11 -21.54912 -44.99942 31291 ft 488 kts 27°
2026-05-06 00:11 -21.48868 -44.96498 31303 ft 488 kts 27°
2026-05-06 00:12 -21.42862 -44.93079 31308 ft 489 kts 27°
2026-05-06 00:12 -21.36855 -44.89662 31312 ft 489 kts 27°
2026-05-06 00:13 -21.30845 -44.86249 31306 ft 489 kts 27°
2026-05-06 00:13 -21.24820 -44.82829 31276 ft 489 kts 27°
2026-05-06 00:14 -21.18810 -44.79420 31275 ft 488 kts 27°
2026-05-06 00:14 -21.12792 -44.76010 31277 ft 488 kts 27°
2026-05-06 00:15 -21.06806 -44.72621 31279 ft 488 kts 27°
2026-05-06 00:15 -21.00774 -44.69210 31282 ft 488 kts 27°
2026-05-06 00:16 -20.94795 -44.65832 31282 ft 488 kts 27°
2026-05-06 00:16 -20.88790 -44.62442 31145 ft 489 kts 27°
2026-05-06 00:16 -20.85749 -44.60726 30352 ft 483 kts 27°
2026-05-06 00:17 -20.82840 -44.59085 29722 ft 467 kts 27°
2026-05-06 00:17 -20.80031 -44.57504 29108 ft 453 kts 27°
2026-05-06 00:17 -20.77147 -44.56183 28470 ft 441 kts 16°
2026-05-06 00:17 -20.74230 -44.55411 27894 ft 430 kts 12°
2026-05-06 00:18 -20.71340 -44.54652 27334 ft 420 kts 13°
2026-05-06 00:18 -20.68534 -44.53943 26791 ft 412 kts 12°
2026-05-06 00:18 -20.65776 -44.53235 26263 ft 407 kts 13°
2026-05-06 00:18 -20.63019 -44.52525 25731 ft 402 kts 13°
2026-05-06 00:19 -20.60330 -44.51825 25209 ft 399 kts 13°
2026-05-06 00:19 -20.57625 -44.51117 24679 ft 395 kts 13°
2026-05-06 00:19 -20.54991 -44.50422 24158 ft 392 kts 14°
2026-05-06 00:19 -20.52349 -44.49722 23640 ft 389 kts 14°
2026-05-06 00:20 -20.49741 -44.49028 23136 ft 384 kts 14°
2026-05-06 00:20 -20.47167 -44.48342 22631 ft 381 kts 14°
2026-05-06 00:20 -20.45449 -44.47882 22294 ft 378 kts 14°
2026-05-06 00:20 -20.42080 -44.46980 21629 ft 374 kts 14°
2026-05-06 00:21 -20.39557 -44.46303 21127 ft 370 kts 14°
2026-05-06 00:21 -20.37091 -44.45640 20626 ft 367 kts 14°
2026-05-06 00:21 -20.34587 -44.44964 19942 ft 364 kts 14°
2026-05-06 00:21 -20.32164 -44.44308 19227 ft 360 kts 15°
2026-05-06 00:22 -20.29758 -44.43657 18506 ft 357 kts 15°
2026-05-06 00:22 -20.27368 -44.43008 17782 ft 352 kts 15°
2026-05-06 00:22 -20.24997 -44.42365 17054 ft 347 kts 15°
2026-05-06 00:22 -20.22689 -44.41739 16354 ft 342 kts 15°
2026-05-06 00:23 -20.21155 -44.41323 15885 ft 338 kts 15°
2026-05-06 00:23 -20.18855 -44.40700 15173 ft 333 kts 15°
2026-05-06 00:23 -20.15925 -44.39905 14258 ft 324 kts 15°
2026-05-06 00:23 -20.13765 -44.39320 13584 ft 319 kts 15°
2026-05-06 00:24 -20.11630 -44.38741 12908 ft 314 kts 15°
2026-05-06 00:24 -20.10215 -44.38357 12454 ft 311 kts 15°
2026-05-06 00:24 -20.08158 -44.37801 11993 ft 300 kts 15°
2026-05-06 00:24 -20.06133 -44.37252 11469 ft 298 kts 15°
2026-05-06 00:25 -20.04111 -44.36704 10933 ft 295 kts 15°
2026-05-06 00:25 -20.02150 -44.36173 10490 ft 288 kts 15°
2026-05-06 00:25 -20.00206 -44.35648 10241 ft 287 kts 15°
2026-05-06 00:25 -19.98262 -44.35121 9989 ft 285 kts 15°
2026-05-06 00:26 -19.96356 -44.34606 9739 ft 283 kts 15°
2026-05-06 00:26 -19.94461 -44.34093 9527 ft 281 kts 15°
2026-05-06 00:26 -19.92562 -44.33580 9440 ft 281 kts 15°
2026-05-06 00:26 -19.90652 -44.33063 9387 ft 281 kts 15°
2026-05-06 00:27 -19.88756 -44.32551 9360 ft 281 kts 15°
2026-05-06 00:27 -19.86869 -44.32041 9346 ft 281 kts 15°
2026-05-06 00:27 -19.84986 -44.31532 9346 ft 281 kts 15°
2026-05-06 00:27 -19.83080 -44.31018 9347 ft 281 kts 15°
2026-05-06 00:28 -19.81188 -44.30507 9347 ft 281 kts 15°
2026-05-06 00:28 -19.79268 -44.29989 9347 ft 281 kts 15°
2026-05-06 00:28 -19.77390 -44.29480 9347 ft 281 kts 16°
2026-05-06 00:28 -19.75566 -44.28724 9269 ft 282 kts 30°
2026-05-06 00:29 -19.73939 -44.27598 9032 ft 279 kts 34°
2026-05-06 00:29 -19.72277 -44.26544 8784 ft 278 kts 31°
2026-05-06 00:29 -19.70626 -44.25517 8535 ft 277 kts 31°
2026-05-06 00:29 -19.68951 -44.24489 8282 ft 275 kts 31°
2026-05-06 00:30 -19.67500 -44.23593 8062 ft 274 kts 32°
2026-05-06 00:30 -19.65861 -44.22574 7811 ft 271 kts 32°
2026-05-06 00:30 -19.64221 -44.21597 7555 ft 265 kts 30°
2026-05-06 00:30 -19.62606 -44.20715 7304 ft 260 kts 28°
2026-05-06 00:31 -19.61022 -44.19877 7154 ft 251 kts 28°
2026-05-06 00:31 -19.59481 -44.19071 7077 ft 240 kts 28°
2026-05-06 00:31 -19.58016 -44.18301 7035 ft 232 kts 28°
2026-05-06 00:31 -19.56610 -44.17493 7076 ft 226 kts 35°
2026-05-06 00:32 -19.55490 -44.16372 6828 ft 220 kts 51°
2026-05-06 00:32 -19.54500 -44.15172 6421 ft 214 kts 48°
2026-05-06 00:32 -19.53504 -44.14064 6100 ft 203 kts 49°
2026-05-06 00:32 -19.52557 -44.12980 5820 ft 196 kts 49°
2026-05-06 00:33 -19.51633 -44.11940 5566 ft 192 kts 50°
2026-05-06 00:33 -19.51033 -44.10725 5273 ft 187 kts 82°
2026-05-06 00:33 -19.51415 -44.09443 5186 ft 186 kts 122°
2026-05-06 00:33 -19.52144 -44.08324 5047 ft 186 kts 121°
2026-05-06 00:34 -19.52856 -44.07169 4784 ft 186 kts 129°
2026-05-06 00:34 -19.53872 -44.06363 4578 ft 179 kts 147°
2026-05-06 00:34 -19.54766 -44.05519 4444 ft 169 kts 126°
2026-05-06 00:34 -19.55300 -44.04474 4424 ft 157 kts 119°
2026-05-06 00:35 -19.56020 -44.03668 4376 ft 148 kts 140°
2026-05-06 00:35 -19.56776 -44.02978 4304 ft 142 kts 134°
2026-05-06 00:35 -19.57498 -44.02277 4122 ft 139 kts 139°
2026-05-06 00:35 -19.58235 -44.01625 4001 ft 138 kts 139°
2026-05-06 00:36 -19.58957 -44.00964 3820 ft 137 kts 138°
2026-05-06 00:36 -19.59671 -44.00296 3516 ft 136 kts 138°
2026-05-06 00:36 -19.60366 -43.99646 3305 ft 133 kts 138°
2026-05-06 00:36 -19.61064 -43.98997 3134 ft 133 kts 139°
2026-05-06 00:37 -19.61762 -43.98350 2926 ft 132 kts 139°
2026-05-06 00:37 -19.62450 -43.97726 2756 ft 130 kts 140°
2026-05-06 00:37 -19.63081 -43.97148 2726 ft 99 kts 138°
2026-05-06 00:37 -19.63422 -43.96829 2726 ft 40 kts 140°
2026-05-06 00:38 -19.63553 -43.96675 2726 ft 22 kts 121°
2026-05-06 00:38 -19.63595 -43.96580 2726 ft 10 kts 109°
2026-05-06 00:38 -19.63603 -43.96508 2726 ft 10 kts 56°
2026-05-06 00:38 -19.63544 -43.96494 2726 ft 10 kts 329°
2026-05-06 00:39 -19.63492 -43.96540 2726 ft 10 kts 319°
2026-05-06 00:39 -19.63438 -43.96590 2726 ft 11 kts 319°
2026-05-06 00:39 -19.63377 -43.96647 2726 ft 12 kts 319°
2026-05-06 00:39 -19.63310 -43.96708 2726 ft 12 kts 327°
2026-05-06 00:40 -19.63261 -43.96701 2726 ft 5 kts 37°
2026-05-06 00:40 -19.63242 -43.96681 2726 ft 4 kts 48°
2026-05-06 00:40 -19.63220 -43.96655 2726 ft 5 kts 49°
2026-05-06 00:40 -19.63193 -43.96620 2726 ft 7 kts 54°
2026-05-06 00:41 -19.63196 -43.96580 2726 ft 6 kts 136°
2026-05-06 00:41 -19.63230 -43.96550 2726 ft 7 kts 139°
2026-05-06 00:41 -19.63266 -43.96517 2726 ft 7 kts 146°
2026-05-06 00:41 -19.63294 -43.96533 2726 ft 5 kts 229°
2026-05-06 00:42 -19.63315 -43.96559 2726 ft 4 kts 230°
2026-05-06 00:42 -19.63327 -43.96574 2726 ft 2 kts 230°
2026-05-06 00:42 -19.63328 -43.96576 2726 ft 0 kts 230°
2026-05-06 00:42 -19.63329 -43.96576 2726 ft 0 kts 230°